EW4423 Weather Reports


Display with metric or nautical units.
time (UTC)temp
F
wind
direction
speed
MPH
gust
MPH
rain 1hr
in
rain 24hr
in
rain mn
in
humidity
%
barometer
mb
20260902000017 95 115 7.0 10.0 0.00 0.00 0.00 40 1015.0
20260901234509 96 101 6.0 12.0 0.00 0.00 0.00 40 1015.0
20260901233005 97 68 7.0 11.0 0.00 0.00 0.00 40 1015.0
20260901231520 97 79 9.0 18.0 0.00 0.00 0.00 40 1015.2
20260901230043 98 46 6.0 16.0 0.00 0.00 0.00 41 1015.0
20260901224518 97 79 11.0 15.0 0.00 0.00 0.00 41 1015.2
20260901223025 98 68 10.0 18.0 0.00 0.00 0.00 41 1015.2
20260901221524 98 46 9.0 15.0 0.00 0.00 0.00 42 1015.3
20260901220033 97 92 9.0 14.0 0.00 0.00 0.00 42 1015.4
20260901214532 98 83 10.0 15.0 0.00 0.00 0.00 41 1015.5
20260901213009 98 88 13.0 18.0 0.00 0.00 0.00 40 1015.7
20260901211513 99 72 7.0 12.0 0.00 0.00 0.00 41 1015.8
20260901210037 97 92 10.0 14.0 0.00 0.00 0.00 41 1016.1
20260901204517 103 139 3.0 11.0 0.00 0.00 0.00 36 1016.1
20260901203042 97 125 7.0 16.0 0.00 0.00 0.00 41 1016.2
20260901201510 96 95 5.0 10.0 0.00 0.00 0.00 43 1016.4
20260901200023 96 91 7.0 15.0 0.00 0.00 0.00 42 1016.5
20260901194524 99 53 11.0 15.0 0.00 0.00 0.00 41 1016.6
20260901193016 98 59 7.0 12.0 0.00 0.00 0.00 41 1016.8
20260901191528 98 49 8.0 13.0 0.00 0.00 0.00 42 1017.1
20260901190048 100 64 7.0 12.0 0.00 0.00 0.00 40 1017.3
20260901184519 97 115 2.0 12.0 0.00 0.00 0.00 43 1017.6
20260901183029 97 39 7.0 11.0 0.00 0.00 0.00 43 1017.8
20260901181515 96 33 7.0 10.0 0.00 0.00 0.00 44 1017.9
20260901180027 95 72 2.0 10.0 0.00 0.00 0.00 46 1018.1
20260901174520 94 114 4.0 6.0 0.00 0.00 0.00 48 1018.5
20260901173018 93 84 5.0 11.0 0.00 0.00 0.00 48 1018.8
20260901171526 93 91 6.0 10.0 0.00 0.00 0.00 49 1019.0
20260901170030 95 89 7.0 10.0 0.00 0.00 0.00 49 1019.2
20260901164526 92 271 1.0 6.0 0.00 0.00 0.00 52 1019.3
20260901163023 91 110 1.0 4.0 0.00 0.00 0.00 54 1019.5
20260901161515 91 214 3.0 7.0 0.00 0.00 0.00 53 1019.6
20260901160026 92 167 4.0 7.0 0.00 0.00 0.00 51 1019.7
20260901154531 92 169 2.0 7.0 0.00 0.00 0.00 52 1019.6
20260901153031 91 341 2.0 5.0 0.00 0.00 0.00 54 1019.5
20260901151533 91 175 2.0 7.0 0.00 0.00 0.00 55 1019.7
20260901150012 89 232 2.0 6.0 0.00 0.00 0.00 59 1019.9
20260901144509 87 263 3.0 6.0 0.00 0.00 0.00 60 1019.8
20260901143007 87 226 3.0 6.0 0.00 0.00 0.00 62 1019.9
20260901141516 85 261 3.0 7.0 0.00 0.00 0.00 64 1019.9
20260901140004 84 158 2.0 5.0 0.00 0.00 0.00 65 1020.0
20260901134507 83 193 4.0 6.0 0.00 0.00 0.00 67 1020.0
20260901133010 82 136 1.0 5.0 0.00 0.00 0.00 68 1020.0
20260901131508 81 127 2.0 4.0 0.00 0.00 0.00 69 1019.8
20260901130017 80 141 1.0 3.0 0.00 0.00 0.00 71 1019.6
20260901124524 78 141 1.0 3.0 0.00 0.00 0.00 72 1019.4
20260901123017 76 141 2.0 3.0 0.00 0.00 0.00 76 1019.3
20260901121525 75 142 1.0 3.0 0.00 0.00 0.00 75 1019.2
20260901120010 75 136 2.0 4.0 0.00 0.00 0.00 75 1018.8
20260901114517 76 138 2.0 4.0 0.00 0.00 0.00 74 1018.8
20260901113030 76 138 4.0 5.0 0.00 0.00 0.00 74 1018.6
20260901111512 75 146 2.0 4.0 0.00 0.00 0.00 75 1018.5
20260901110012 76 151 2.0 2.0 0.00 0.00 0.00 73 1018.5
20260901104543 76 151 2.0 3.0 0.00 0.00 0.00 73 1018.5
20260901103018 76 151 0.0 3.0 0.00 0.00 0.00 72 1018.4
20260901101532 76 151 2.0 3.0 0.00 0.00 0.00 73 1018.2
20260901100008 76 153 2.0 2.0 0.00 0.00 0.00 72 1018.3
20260901094516 77 153 0.0 1.0 0.00 0.00 0.00 71 1018.2
20260901093035 78 153 1.0 3.0 0.00 0.00 0.00 69 1018.4
20260901091519 79 153 2.0 3.0 0.00 0.00 0.00 68 1018.5
20260901090031 79 154 2.0 3.0 0.00 0.00 0.00 67 1018.4
20260901084510 80 156 3.0 5.0 0.00 0.00 0.00 66 1018.4
20260901083020 80 151 4.0 6.0 0.00 0.00 0.00 65 1018.4
20260901081506 80 150 4.0 7.0 0.00 0.00 0.00 64 1018.3
20260901080006 81 148 4.0 6.0 0.00 0.00 0.00 64 1018.3
20260901074530 81 143 3.0 6.0 0.00 0.00 0.00 63 1018.4
20260901073008 81 153 4.0 8.0 0.00 0.00 0.00 63 1018.2
20260901071520 81 141 4.0 8.0 0.00 0.00 0.00 62 1018.2
20260901070025 82 139 3.0 6.0 0.00 0.00 0.00 62 1018.2
20260901064519 82 148 3.0 5.0 0.00 0.00 0.00 61 1018.0
20260901063007 82 146 3.0 6.0 0.00 0.00 0.00 60 1018.0
20260901061508 82 143 2.0 5.0 0.00 0.00 0.00 60 1018.0
20260901060017 83 135 2.0 5.0 0.00 0.00 0.00 58 1017.8
20260901054525 83 141 3.0 6.0 0.00 0.00 0.00 58 1017.7
20260901053010 84 124 3.0 6.0 0.00 0.00 0.00 57 1017.5
20260901051512 84 120 4.0 7.0 0.00 0.00 0.00 56 1017.4
20260901050015 85 139 4.0 7.0 0.00 0.00 0.00 55 1017.3
20260901044517 85 131 3.0 7.0 0.00 0.00 0.00 54 1017.3
20260901043029 85 129 4.0 7.0 0.00 0.00 0.00 54 1017.3
20260901041507 85 126 3.0 6.0 0.00 0.00 0.00 53 1017.1
20260901040014 86 135 2.0 7.0 0.00 0.00 0.00 52 1017.2
20260901034519 86 121 3.0 6.0 0.00 0.00 0.00 51 1017.2
20260901033021 87 124 3.0 7.0 0.00 0.00 0.00 50 1017.1
20260901031546 87 135 4.0 10.0 0.00 0.00 0.00 49 1017.1
20260901030009 88 136 5.0 8.0 0.00 0.00 0.00 48 1016.8
20260901024514 88 116 5.0 10.0 0.00 0.00 0.00 48 1016.7
20260901023032 88 124 6.0 10.0 0.00 0.00 0.00 47 1016.6
20260901021518 88 106 4.0 7.0 0.00 0.00 0.00 47 1016.4
20260901020025 88 112 4.0 8.0 0.00 0.00 0.00 46 1016.3
20260901014510 89 114 4.0 6.0 0.00 0.00 0.00 45 1016.2
20260901013023 90 115 5.0 6.0 0.00 0.00 0.00 44 1016.1
20260901011514 91 108 4.0 7.0 0.00 0.00 0.00 43 1016.0
20260901010003 92 97 4.0 7.0 0.00 0.00 0.00 42 1015.9
20260901004508 93 108 3.0 6.0 0.00 0.00 0.00 40 1015.9
20260901003009 95 112 4.0 7.0 0.00 0.00 0.00 37 1015.9
20260901001512 96 110 4.0 6.0 0.00 0.00 0.00 36 1015.8